Weather History for Patuxent River, MD

Change the Weather History Date:

Sunday, May 12, 2013

  Actual Average Record
Temperature  
Mean Temperature 60 °F -  
Max Temperature 66 °F 73 °F 89 °F (2000)
Min Temperature 55 °F 55 °F 45 °F (1977)
Degree Days  
Heating Degree Days 4    
Growing Degree Days 10 (Base 50)    
Moisture  
Dew Point 45 °F    
Average Humidity 55    
Maximum Humidity 87    
Minimum Humidity 29    
Precipitation  
Precipitation 0.12 in - - ()
Sea Level Pressure  
Sea Level Pressure 29.85 in    
Wind  
Wind Speed 8 mph (NW)    
Max Wind Speed 21 mph    
Max Gust Speed 24 mph    
Visibility 10 miles    
Events Rain    
Averages and records for this station are not official NWS values.
T = Trace of Precipitation, MM = Missing Value Source: NWS Daily Summary

Daily Weather History Graph

Daily Weather History Graph

Search for Another Location

Airport:

Trip Planner

Search our weather history database for the weather conditions in past years. The results will help you decide how hot, cold, wet, or windy it might be!

Date:

Astronomy

May. 12, 2013 Rise Set
Actual Time 5:57 AM EDT 8:07 PM EDT
Civil Twilight 5:27 AM EDT 8:36 PM EDT
Nautical Twilight 4:51 AM EDT 9:13 PM EDT
Astronomical Twilight 4:12 AM EDT 9:52 PM EDT
Moon 7:50 AM EDT (5/12) 10:32 PM EDT (5/12)
Length of Visible Light 15h 09m
Length of Day
14h 10m
Waxing Crescent, 6% of the Moon is Illuminated
May 12
Waxing Crescent
May 18
First Quarter
May 25
Full
May 31
Last Quarter
Jun 8
New

Hourly Weather History & Observations

Time (EDT) Temp. Dew Point Humidity Pressure Visibility Wind Dir Wind Speed Gust Speed Precip Events Conditions
12:52 AM 64.9 °F 60.1 °F 84% 29.77 in 10.0 mi Calm Calm - 0.07 in Rain Light Rain
1:52 AM 64.0 °F 60.1 °F 87% 29.75 in 10.0 mi NNW 5.8 mph - 0.01 in Rain Light Rain
2:52 AM 63.0 °F 59.0 °F 87% 29.74 in 10.0 mi NW 4.6 mph - 0.01 in   Scattered Clouds
3:52 AM 63.0 °F 59.0 °F 87% 29.76 in 10.0 mi West 4.6 mph - 0.00 in Rain Light Rain
4:52 AM 62.1 °F 57.0 °F 84% 29.78 in 8.0 mi West 8.1 mph - 0.02 in Rain Light Rain
5:52 AM 61.0 °F 53.1 °F 75% 29.79 in 10.0 mi West 5.8 mph - 0.01 in   Overcast
6:17 AM 62.6 °F 51.8 °F 68% 29.78 in 10.0 mi WNW 12.7 mph 20.7 mph N/A   Overcast
6:52 AM 60.1 °F 52.0 °F 75% 29.79 in 10.0 mi West 5.8 mph 16.1 mph N/A   Overcast
7:52 AM 61.0 °F 50.0 °F 67% 29.79 in 10.0 mi NW 10.4 mph - N/A   Mostly Cloudy
8:52 AM 62.1 °F 48.0 °F 60% 29.82 in 10.0 mi WNW 9.2 mph - N/A   Mostly Cloudy
9:52 AM 66.0 °F 48.9 °F 54% 29.83 in 10.0 mi NW 15.0 mph 20.7 mph N/A   Mostly Cloudy
10:52 AM 66.0 °F 48.9 °F 54% 29.83 in 10.0 mi NW 15.0 mph - N/A   Mostly Cloudy
11:52 AM 64.9 °F 44.1 °F 47% 29.83 in 10.0 mi NW 13.8 mph - N/A   Scattered Clouds
12:52 PM 66.0 °F 43.0 °F 43% 29.84 in 10.0 mi NW 15.0 mph - N/A   Scattered Clouds
1:52 PM 63.0 °F 41.0 °F 45% 29.85 in 10.0 mi NW 15.0 mph 23.0 mph N/A   Scattered Clouds
2:52 PM 66.9 °F 41.0 °F 39% 29.85 in 10.0 mi WNW 16.1 mph 21.9 mph N/A   Scattered Clouds
3:52 PM 66.0 °F 39.9 °F 38% 29.84 in 10.0 mi NW 15.0 mph 23.0 mph N/A   Scattered Clouds
4:52 PM 66.0 °F 37.0 °F 34% 29.86 in 10.0 mi NW 20.7 mph 24.2 mph N/A   Partly Cloudy
5:52 PM 64.9 °F 34.0 °F 32% 29.86 in 10.0 mi NW 18.4 mph - N/A   Partly Cloudy
6:52 PM 64.0 °F 30.9 °F 29% 29.89 in 10.0 mi NW 13.8 mph - N/A   Clear
7:52 PM 61.0 °F 30.0 °F 31% 29.92 in 10.0 mi NW 16.1 mph - N/A   Clear
8:52 PM 57.0 °F 33.1 °F 40% 29.96 in 10.0 mi NNW 6.9 mph - N/A   Clear
9:52 PM 55.9 °F 34.0 °F 44% 29.99 in 10.0 mi WNW 8.1 mph - N/A   Clear
10:52 PM 57.0 °F 32.0 °F 39% 30.01 in 10.0 mi WNW 11.5 mph 21.9 mph N/A   Clear
11:52 PM 55.9 °F 32.0 °F 40% 30.02 in 10.0 mi WNW 9.2 mph - N/A   Clear